START_TIME,STEP,MOV.,M35,t_acc.,PL05,t_acc.,PL06,t_acc.,PL07,t_acc.
1980-11-15 03:00:12.480 ,3,0,0.,4.8,2.,4.8,0.,4.8,0.,4.8
1980-11-15 03:00:17.280 ,3,0,0.,4.8,1.,4.8,0.,4.8,0.,4.8
1980-11-15 03:00:22.080 ,3,0,0.,4.8,2.,4.8,0.,4.8,0.,4.8
1980-11-15 03:00:26.880 ,3,0,0.,4.8,0.,4.8,0.,4.8,0.,4.8
1980-11-15 03:00:31.680 ,3,0,0.,4.8,1.,4.8,1.,4.8,0.,4.8
1980-11-15 03:00:36.480 ,2,0,0.,4.8,0.,4.8,0.,4.8,0.,4.8
1980-11-15 03:00:41.280 ,2,0,0.,4.8,2.,4.8,0.,4.8,0.,4.8
1980-11-15 03:00:46.080 ,2,0,0.,4.8,1.,4.8,0.,4.8,0.,4.8
1980-11-15 03:00:50.880 ,2,0,0.,4.8,0.,4.8,0.,4.8,0.,4.8
1980-11-15 03:00:55.680 ,2,0,0.,4.8,0.,4.8,0.,4.8,0.,4.8
1980-11-15 03:01:00.480 ,2,0,0.,4.8,0.,4.8,0.,4.8,0.,4.8
1980-11-15 03:01:05.280 ,2,0,0.,4.8,2.,4.8,2.,4.8,0.,4.8
1980-11-15 03:01:10.080 ,2,0,0.,4.8,0.,4.8,0.,4.8,0.,4.8
1980-11-15 03:01:14.880 ,2,0,0.,4.8,1.,4.8,0.,4.8,0.,4.8
1980-11-15 03:01:19.680 ,2,0,0.,4.8,1.,4.8,0.,4.8,0.,4.8
1980-11-15 03:01:24.480 ,1,0,0.,4.8,0.,4.8,0.,4.8,0.,4.8
1980-11-15 03:01:29.280 ,1,0,0.,4.8,0.,4.8,0.,4.8,0.,4.8
1980-11-15 03:01:34.080 ,1,0,0.,4.8,1.,4.8,0.,4.8,0.,4.8
1980-11-15 03:01:38.880 ,1,0,0.,4.8,0.,4.8,1.,4.8,1.,4.8
1980-11-15 03:01:43.680 ,1,0,0.,4.8,0.,4.8,0.,4.8,0.,4.8
1980-11-15 03:01:48.480 ,1,0,0.,4.8,1.,4.8,1.,4.8,0.,4.8
1980-11-15 03:01:53.280 ,1,0,0.,4.8,0.,4.8,0.,4.8,0.,4.8
1980-11-15 03:01:58.080 ,1,0,0.,4.8,1.,4.8,0.,4.8,0.,4.8
1980-11-15 03:02:02.880 ,1,0,0.,4.8,0.,4.8,0.,4.8,0.,4.8
1980-11-15 03:02:07.680 ,1,0,0.,4.8,2.,4.8,1.,4.8,1.,4.8
1980-11-15 03:02:12.480 ,0,0,0.,4.8,1.,4.8,0.,4.8,0.,4.8
1980-11-15 03:02:17.280 ,0,0,0.,4.8,0.,4.8,0.,4.8,0.,4.8
1980-11-15 03:02:22.080 ,0,0,0.,4.8,0.,4.8,0.,4.8,0.,4.8
1980-11-15 03:02:26.880 ,0,0,0.,4.8,1.,4.8,0.,4.8,0.,4.8
1980-11-15 03:02:31.680 ,0,0,0.,4.8,0.,4.8,0.,4.8,0.,4.8
1980-11-15 03:02:36.480 ,0,0,0.,4.8,0.,4.8,0.,4.8,0.,4.8
1980-11-15 03:02:41.280 ,0,0,0.,4.8,0.,4.8,0.,4.8,0.,4.8
1980-11-15 03:02:46.080 ,0,0,0.,4.8,1.,4.8,0.,4.8,0.,4.8
1980-11-15 03:02:50.880 ,0,0,0.,4.8,1.,4.8,0.,4.8,0.,4.8
1980-11-15 03:02:55.680 ,0,0,0.,4.8,0.,4.8,0.,4.8,1.,4.8
1980-11-15 03:03:00.480 ,0,0,0.,4.8,1.,4.8,0.,4.8,0.,4.8
1980-11-15 03:03:05.280 ,0,0,0.,4.8,0.,4.8,0.,4.8,0.,4.8
1980-11-15 03:03:10.080 ,0,0,0.,4.8,1.,4.8,0.,4.8,1.,4.8
1980-11-15 03:03:14.880 ,0,0,0.,4.8,3.,4.8,1.,4.8,0.,4.8
1980-11-15 03:03:19.680 ,0,0,0.,4.8,1.,4.8,1.,4.8,0.,4.8
1980-11-15 03:03:24.480 ,0,0,0.,4.8,2.,4.8,0.,4.8,0.,4.8
1980-11-15 03:03:29.280 ,0,0,0.,4.8,0.,4.8,0.,4.8,0.,4.8
1980-11-15 03:03:34.080 ,0,0,0.,4.8,0.,4.8,0.,4.8,1.,4.8
1980-11-15 03:03:38.880 ,0,0,0.,4.8,0.,4.8,0.,4.8,0.,4.8
1980-11-15 03:03:43.680 ,0,0,0.,4.8,1.,4.8,1.,4.8,0.,4.8
1980-11-15 03:03:48.480 ,1,0,0.,4.8,0.,4.8,0.,4.8,0.,4.8
1980-11-15 03:03:53.280 ,1,0,0.,4.8,3.,4.8,0.,4.8,0.,4.8
1980-11-15 03:03:58.080 ,1,0,0.,4.8,0.,4.8,0.,4.8,0.,4.8
1980-11-15 03:04:02.880 ,1,0,0.,4.8,1.,4.8,2.,4.8,0.,4.8
1980-11-15 03:04:07.680 ,1,0,0.,4.8,1.,4.8,0.,4.8,0.,4.8
1980-11-15 03:04:12.480 ,1,0,0.,4.8,0.,4.8,0.,4.8,0.,4.8
1980-11-15 03:04:17.280 ,1,0,0.,4.8,1.,4.8,0.,4.8,0.,4.8
1980-11-15 03:04:22.080 ,1,0,0.,4.8,0.,4.8,0.,4.8,0.,4.8
1980-11-15 03:04:26.880 ,1,0,0.,4.8,1.,4.8,1.,4.8,0.,4.8
1980-11-15 03:04:31.680 ,1,0,0.,4.8,0.,4.8,0.,4.8,0.,4.8
1980-11-15 03:04:36.480 ,2,0,0.,4.8,1.,4.8,1.,4.8,0.,4.8
1980-11-15 03:04:41.280 ,2,0,0.,4.8,2.,4.8,0.,4.8,1.,4.8
1980-11-15 03:04:46.080 ,2,0,0.,4.8,1.,4.8,2.,4.8,0.,4.8
1980-11-15 03:04:50.880 ,2,0,0.,4.8,0.,4.8,0.,4.8,0.,4.8
1980-11-15 03:04:55.680 ,2,0,0.,4.8,0.,4.8,1.,4.8,0.,4.8
1980-11-15 03:05:00.480 ,2,0,0.,4.8,0.,4.8,0.,4.8,0.,4.8
1980-11-15 03:05:05.280 ,2,0,0.,4.8,2.,4.8,0.,4.8,1.,4.8
1980-11-15 03:05:10.080 ,2,0,0.,4.8,0.,4.8,0.,4.8,0.,4.8
1980-11-15 03:05:14.880 ,2,0,0.,4.8,1.,4.8,0.,4.8,0.,4.8
1980-11-15 03:05:19.680 ,2,0,0.,4.8,1.,4.8,0.,4.8,0.,4.8
1980-11-15 03:05:24.480 ,3,0,0.,4.8,0.,4.8,1.,4.8,0.,4.8
1980-11-15 03:05:29.280 ,3,0,0.,4.8,0.,4.8,0.,4.8,0.,4.8
1980-11-15 03:05:34.080 ,3,0,0.,4.8,1.,4.8,0.,4.8,0.,4.8
1980-11-15 03:05:38.880 ,3,0,0.,4.8,1.,4.8,1.,4.8,0.,4.8
1980-11-15 03:05:43.680 ,3,0,0.,4.8,1.,4.8,1.,4.8,0.,4.8
1980-11-15 03:05:48.480 ,3,0,0.,4.8,2.,4.8,0.,4.8,0.,4.8
1980-11-15 03:05:53.280 ,3,0,0.,4.8,0.,4.8,1.,4.8,0.,4.8
1980-11-15 03:05:58.080 ,3,0,0.,4.8,0.,4.8,1.,4.8,1.,4.8
1980-11-15 03:06:02.880 ,3,0,0.,4.8,1.,4.8,0.,4.8,0.,4.8
1980-11-15 03:06:07.680 ,3,0,0.,4.8,0.,4.8,0.,4.8,0.,4.8
1980-11-15 03:06:12.480 ,4,0,0.,4.8,0.,4.8,1.,4.8,0.,4.8
1980-11-15 03:06:17.280 ,4,0,0.,4.8,0.,4.8,1.,4.8,0.,4.8
1980-11-15 03:06:22.080 ,4,0,0.,4.8,0.,4.8,0.,4.8,0.,4.8
1980-11-15 03:06:26.880 ,4,0,0.,4.8,1.,4.8,1.,4.8,0.,4.8
1980-11-15 03:06:31.680 ,4,0,0.,4.8,1.,4.8,1.,4.8,0.,4.8
1980-11-15 03:06:36.480 ,4,0,0.,4.8,0.,4.8,0.,4.8,0.,4.8
1980-11-15 03:06:41.280 ,4,0,0.,4.8,0.,4.8,0.,4.8,0.,4.8
1980-11-15 03:06:46.080 ,4,0,0.,4.8,0.,4.8,0.,4.8,0.,4.8
1980-11-15 03:06:50.880 ,4,0,0.,4.8,2.,4.8,0.,4.8,0.,4.8
1980-11-15 03:06:55.680 ,4,0,0.,4.8,0.,4.8,0.,4.8,0.,4.8
1980-11-15 03:07:00.480 ,5,0,0.,4.8,2.,4.8,1.,4.8,0.,4.8
1980-11-15 03:07:05.280 ,5,0,0.,4.8,0.,4.8,0.,4.8,2.,4.8
1980-11-15 03:07:10.080 ,5,0,0.,4.8,1.,4.8,0.,4.8,1.,4.8
1980-11-15 03:07:14.880 ,5,0,0.,4.8,0.,4.8,0.,4.8,1.,4.8
1980-11-15 03:07:19.680 ,5,0,0.,4.8,1.,4.8,0.,4.8,0.,4.8
1980-11-15 03:07:24.480 ,5,0,0.,4.8,0.,4.8,0.,4.8,0.,4.8
1980-11-15 03:07:29.280 ,5,0,0.,4.8,1.,4.8,0.,4.8,0.,4.8
1980-11-15 03:07:34.080 ,5,0,0.,4.8,0.,4.8,0.,4.8,0.,4.8
1980-11-15 03:07:38.880 ,5,0,0.,4.8,0.,4.8,0.,4.8,0.,4.8
1980-11-15 03:07:43.680 ,5,0,0.,4.8,0.,4.8,0.,4.8,0.,4.8
1980-11-15 03:07:48.480 ,6,0,0.,4.8,1.,4.8,0.,4.8,0.,4.8
1980-11-15 03:07:53.280 ,6,0,0.,4.8,1.,4.8,1.,4.8,0.,4.8
1980-11-15 03:07:58.080 ,6,0,0.,4.8,0.,4.8,0.,4.8,1.,4.8
1980-11-15 03:08:02.880 ,6,0,0.,4.8,1.,4.8,0.,4.8,0.,4.8
1980-11-15 03:08:07.680 ,6,0,0.,4.8,0.,4.8,0.,4.8,0.,4.8
1980-11-15 03:08:12.480 ,6,0,0.,4.8,0.,4.8,0.,4.8,0.,4.8
1980-11-15 03:08:17.280 ,6,0,0.,4.8,0.,4.8,0.,4.8,0.,4.8
1980-11-15 03:08:22.080 ,6,0,0.,4.8,0.,4.8,0.,4.8,0.,4.8
1980-11-15 03:08:26.880 ,6,0,0.,4.8,1.,4.8,0.,4.8,0.,4.8
1980-11-15 03:08:31.680 ,6,0,0.,4.8,1.,4.8,0.,4.8,1.,4.8
1980-11-15 03:08:36.480 ,7,0,0.,4.8,1.,4.8,0.,4.8,0.,4.8
1980-11-15 03:08:41.280 ,7,0,0.,4.8,0.,4.8,0.,4.8,0.,4.8
1980-11-15 03:08:46.080 ,7,0,0.,4.8,0.,4.8,0.,4.8,0.,4.8
1980-11-15 03:08:50.880 ,7,0,0.,4.8,1.,4.8,0.,4.8,0.,4.8
1980-11-15 03:08:55.680 ,7,0,0.,4.8,0.,4.8,1.,4.8,0.,4.8
1980-11-15 03:09:00.480 ,7,0,0.,4.8,0.,4.8,3.,4.8,0.,4.8
1980-11-15 03:09:05.280 ,7,0,0.,4.8,1.,4.8,0.,4.8,0.,4.8
1980-11-15 03:09:10.080 ,7,0,0.,4.8,0.,4.8,1.,4.8,0.,4.8
1980-11-15 03:09:14.880 ,7,0,0.,4.8,0.,4.8,0.,4.8,0.,4.8
1980-11-15 03:09:19.680 ,7,0,0.,4.8,1.,4.8,1.,4.8,0.,4.8
1980-11-15 03:09:24.480 ,7,0,0.,4.8,1.,4.8,1.,4.8,2.,4.8
1980-11-15 03:09:29.280 ,7,0,0.,4.8,0.,4.8,0.,4.8,0.,4.8
1980-11-15 03:09:34.080 ,7,0,0.,4.8,0.,4.8,0.,4.8,0.,4.8
1980-11-15 03:09:38.880 ,7,0,0.,4.8,0.,4.8,1.,4.8,0.,4.8
1980-11-15 03:09:43.680 ,7,0,0.,4.8,2.,4.8,0.,4.8,1.,4.8
1980-11-15 03:09:48.480 ,7,0,0.,4.8,1.,4.8,0.,4.8,0.,4.8
1980-11-15 03:09:53.280 ,7,0,0.,4.8,0.,4.8,1.,4.8,0.,4.8
1980-11-15 03:09:58.080 ,7,0,0.,4.8,1.,4.8,0.,4.8,1.,4.8
1980-11-15 03:10:02.880 ,7,0,0.,4.8,0.,4.8,1.,4.8,1.,4.8
1980-11-15 03:10:07.680 ,7,0,0.,4.8,0.,4.8,0.,4.8,0.,4.8
1980-11-15 03:10:12.480 ,6,0,0.,4.8,0.,4.8,0.,4.8,0.,4.8
1980-11-15 03:10:17.280 ,6,0,0.,4.8,1.,4.8,1.,4.8,0.,4.8
1980-11-15 03:10:22.080 ,6,0,0.,4.8,0.,4.8,0.,4.8,0.,4.8
1980-11-15 03:10:26.880 ,6,0,0.,4.8,1.,4.8,0.,4.8,0.,4.8
1980-11-15 03:10:31.680 ,6,0,0.,4.8,1.,4.8,1.,4.8,0.,4.8
1980-11-15 03:10:36.480 ,6,0,0.,4.8,0.,4.8,0.,4.8,0.,4.8
1980-11-15 03:10:41.280 ,6,0,0.,4.8,0.,4.8,1.,4.8,0.,4.8
1980-11-15 03:10:46.080 ,6,0,0.,4.8,0.,4.8,0.,4.8,0.,4.8
1980-11-15 03:10:50.880 ,6,0,0.,4.8,0.,4.8,0.,4.8,0.,4.8
1980-11-15 03:10:55.680 ,6,0,0.,4.8,0.,4.8,0.,4.8,0.,4.8
1980-11-15 03:11:00.480 ,5,0,0.,4.8,0.,4.8,0.,4.8,0.,4.8
1980-11-15 03:11:05.280 ,5,0,0.,4.8,0.,4.8,0.,4.8,0.,4.8
1980-11-15 03:11:10.080 ,5,0,0.,4.8,1.,4.8,0.,4.8,0.,4.8
1980-11-15 03:11:14.880 ,5,0,0.,4.8,0.,4.8,0.,4.8,1.,4.8
1980-11-15 03:11:19.680 ,5,0,0.,4.8,0.,4.8,1.,4.8,0.,4.8
1980-11-15 03:11:24.480 ,5,0,0.,4.8,0.,4.8,0.,4.8,0.,4.8
1980-11-15 03:11:29.280 ,5,0,0.,4.8,1.,4.8,0.,4.8,0.,4.8
1980-11-15 03:11:34.080 ,5,0,0.,4.8,0.,4.8,0.,4.8,0.,4.8
1980-11-15 03:11:38.880 ,5,0,0.,4.8,0.,4.8,0.,4.8,0.,4.8
1980-11-15 03:11:43.680 ,5,0,0.,4.8,2.,4.8,1.,4.8,0.,4.8
1980-11-15 03:11:48.480 ,4,0,0.,4.8,0.,4.8,0.,4.8,0.,4.8
1980-11-15 03:11:53.280 ,4,0,0.,4.8,1.,4.8,0.,4.8,0.,4.8
1980-11-15 03:11:58.080 ,4,0,0.,4.8,0.,4.8,0.,4.8,0.,4.8
1980-11-15 03:12:02.880 ,4,0,0.,4.8,0.,4.8,0.,4.8,0.,4.8
1980-11-15 03:12:07.680 ,4,0,0.,4.8,0.,4.8,0.,4.8,0.,4.8
1980-11-15 03:12:12.480 ,4,0,0.,4.8,0.,4.8,0.,4.8,0.,4.8
1980-11-15 03:12:17.280 ,4,0,0.,4.8,1.,4.8,0.,4.8,0.,4.8
1980-11-15 03:12:22.080 ,4,0,0.,4.8,1.,4.8,1.,4.8,0.,4.8
1980-11-15 03:12:26.880 ,4,0,0.,4.8,0.,4.8,0.,4.8,0.,4.8
1980-11-15 03:12:31.680 ,4,0,0.,4.8,1.,4.8,1.,4.8,0.,4.8
1980-11-15 03:12:36.480 ,3,0,0.,4.8,0.,4.8,0.,4.8,0.,4.8
1980-11-15 03:12:41.280 ,3,0,0.,4.8,1.,4.8,0.,4.8,0.,4.8
1980-11-15 03:12:46.080 ,3,0,0.,4.8,0.,4.8,0.,4.8,0.,4.8
1980-11-15 03:12:50.880 ,3,0,0.,4.8,0.,4.8,0.,4.8,0.,4.8
1980-11-15 03:12:55.680 ,3,0,0.,4.8,1.,4.8,0.,4.8,1.,4.8
1980-11-15 03:13:00.480 ,3,0,0.,4.8,0.,4.8,0.,4.8,0.,4.8
1980-11-15 03:13:05.280 ,3,0,0.,4.8,1.,4.8,0.,4.8,1.,4.8
1980-11-15 03:13:10.080 ,3,0,0.,4.8,1.,4.8,0.,4.8,0.,4.8
1980-11-15 03:13:14.880 ,3,0,0.,4.8,2.,4.8,0.,4.8,0.,4.8
1980-11-15 03:13:19.680 ,3,0,0.,4.8,0.,4.8,0.,4.8,0.,4.8
1980-11-15 03:13:24.480 ,2,0,0.,4.8,1.,4.8,1.,4.8,0.,4.8
1980-11-15 03:13:29.280 ,2,0,0.,4.8,1.,4.8,0.,4.8,0.,4.8
1980-11-15 03:13:34.080 ,2,0,0.,4.8,1.,4.8,0.,4.8,0.,4.8
1980-11-15 03:13:38.880 ,2,0,0.,4.8,0.,4.8,0.,4.8,0.,4.8
1980-11-15 03:13:43.680 ,2,0,0.,4.8,1.,4.8,1.,4.8,0.,4.8
1980-11-15 03:13:48.480 ,2,0,0.,4.8,0.,4.8,0.,4.8,0.,4.8
1980-11-15 03:13:53.280 ,2,0,0.,4.8,0.,4.8,0.,4.8,0.,4.8
1980-11-15 03:13:58.080 ,2,0,0.,4.8,0.,4.8,0.,4.8,0.,4.8
1980-11-15 03:14:02.880 ,2,0,0.,4.8,1.,4.8,0.,4.8,0.,4.8
1980-11-15 03:14:07.680 ,2,0,0.,4.8,0.,4.8,0.,4.8,0.,4.8
1980-11-15 03:14:12.480 ,1,0,0.,4.8,0.,4.8,0.,4.8,0.,4.8
1980-11-15 03:14:17.280 ,1,0,0.,4.8,0.,4.8,0.,4.8,0.,4.8
1980-11-15 03:14:22.080 ,1,0,0.,4.8,0.,4.8,1.,4.8,0.,4.8
1980-11-15 03:14:26.880 ,1,0,0.,4.8,2.,4.8,0.,4.8,0.,4.8
1980-11-15 03:14:31.680 ,1,0,0.,4.8,1.,4.8,0.,4.8,0.,4.8
1980-11-15 03:14:36.480 ,1,0,0.,4.8,2.,4.8,0.,4.8,0.,4.8
1980-11-15 03:14:41.280 ,1,0,0.,4.8,1.,4.8,0.,4.8,0.,4.8
1980-11-15 03:14:46.080 ,1,0,0.,4.8,1.,4.8,0.,4.8,0.,4.8
1980-11-15 03:14:50.880 ,1,0,0.,4.8,0.,4.8,0.,4.8,0.,4.8
1980-11-15 03:14:55.680 ,1,0,0.,4.8,0.,4.8,0.,4.8,0.,4.8
1980-11-15 03:15:00.480 ,0,0,0.,4.8,0.,4.8,0.,4.8,0.,4.8
1980-11-15 03:15:05.280 ,0,0,0.,4.8,1.,4.8,0.,4.8,0.,4.8
1980-11-15 03:15:10.080 ,0,0,0.,4.8,1.,4.8,0.,4.8,0.,4.8
1980-11-15 03:15:14.880 ,0,0,0.,4.8,1.,4.8,0.,4.8,0.,4.8
1980-11-15 03:15:19.680 ,0,0,0.,4.8,2.,4.8,1.,4.8,1.,4.8
1980-11-15 03:15:24.480 ,0,0,0.,4.8,1.,4.8,1.,4.8,0.,4.8
1980-11-15 03:15:29.280 ,0,0,0.,4.8,0.,4.8,0.,4.8,0.,4.8
1980-11-15 03:15:34.080 ,0,0,0.,4.8,0.,4.8,0.,4.8,0.,4.8
1980-11-15 03:15:38.880 ,0,0,0.,4.8,2.,4.8,1.,4.8,0.,4.8
1980-11-15 03:15:43.680 ,0,0,0.,4.8,0.,4.8,0.,4.8,0.,4.8
1980-11-15 03:15:48.480 ,0,0,0.,4.8,1.,4.8,0.,4.8,0.,4.8
1980-11-15 03:15:53.280 ,0,0,0.,4.8,0.,4.8,1.,4.8,0.,4.8
1980-11-15 03:15:58.080 ,0,0,0.,4.8,1.,4.8,0.,4.8,0.,4.8
1980-11-15 03:16:02.880 ,0,0,0.,4.8,1.,4.8,0.,4.8,0.,4.8
1980-11-15 03:16:07.680 ,0,0,0.,4.8,0.,4.8,0.,4.8,0.,4.8
1980-11-15 03:16:12.480 ,0,0,0.,4.8,0.,4.8,0.,4.8,0.,4.8
1980-11-15 03:16:17.280 ,0,0,0.,4.8,1.,4.8,1.,4.8,1.,4.8
1980-11-15 03:16:22.080 ,0,0,0.,4.8,0.,4.8,1.,4.8,0.,4.8
1980-11-15 03:16:26.880 ,0,0,0.,4.8,1.,4.8,0.,4.8,0.,4.8
1980-11-15 03:16:31.680 ,0,0,0.,4.8,0.,4.8,0.,4.8,0.,4.8
1980-11-15 03:16:36.480 ,1,0,0.,4.8,1.,4.8,1.,4.8,0.,4.8
1980-11-15 03:16:41.280 ,1,0,0.,4.8,1.,4.8,0.,4.8,0.,4.8
1980-11-15 03:16:46.080 ,1,0,0.,4.8,1.,4.8,2.,4.8,0.,4.8
1980-11-15 03:16:50.880 ,1,0,0.,4.8,0.,4.8,0.,4.8,1.,4.8
1980-11-15 03:16:55.680 ,1,0,0.,4.8,0.,4.8,0.,4.8,0.,4.8
1980-11-15 03:17:00.480 ,1,0,0.,4.8,0.,4.8,0.,4.8,0.,4.8
1980-11-15 03:17:05.280 ,1,0,0.,4.8,1.,4.8,1.,4.8,1.,4.8
1980-11-15 03:17:10.080 ,1,0,0.,4.8,0.,4.8,1.,4.8,0.,4.8
1980-11-15 03:17:14.880 ,1,0,0.,4.8,1.,4.8,0.,4.8,0.,4.8
1980-11-15 03:17:19.680 ,1,0,0.,4.8,1.,4.8,0.,4.8,1.,4.8
1980-11-15 03:17:24.480 ,2,0,0.,4.8,0.,4.8,0.,4.8,0.,4.8
1980-11-15 03:17:29.280 ,2,0,0.,4.8,1.,4.8,1.,4.8,0.,4.8
1980-11-15 03:17:34.080 ,2,0,0.,4.8,2.,4.8,1.,4.8,0.,4.8
1980-11-15 03:17:38.880 ,2,0,0.,4.8,0.,4.8,1.,4.8,0.,4.8
1980-11-15 03:17:43.680 ,2,0,0.,4.8,0.,4.8,0.,4.8,1.,4.8
1980-11-15 03:17:48.480 ,2,0,0.,4.8,1.,4.8,0.,4.8,0.,4.8
1980-11-15 03:17:53.280 ,2,0,0.,4.8,0.,4.8,0.,4.8,0.,4.8
1980-11-15 03:17:58.080 ,2,0,0.,4.8,1.,4.8,0.,4.8,1.,4.8
1980-11-15 03:18:02.880 ,2,0,0.,4.8,0.,4.8,0.,4.8,0.,4.8
1980-11-15 03:18:07.680 ,2,0,0.,4.8,0.,4.8,0.,4.8,0.,4.8
1980-11-15 03:18:12.480 ,3,0,0.,4.8,1.,4.8,0.,4.8,0.,4.8
1980-11-15 03:18:17.280 ,3,0,0.,4.8,0.,4.8,2.,4.8,0.,4.8
1980-11-15 03:18:22.080 ,3,0,0.,4.8,2.,4.8,1.,4.8,0.,4.8
1980-11-15 03:18:26.880 ,3,0,0.,4.8,1.,4.8,0.,4.8,0.,4.8
1980-11-15 03:18:31.680 ,3,0,0.,4.8,0.,4.8,0.,4.8,0.,4.8
1980-11-15 03:18:36.480 ,3,0,0.,4.8,0.,4.8,0.,4.8,1.,4.8
1980-11-15 03:18:41.280 ,3,0,0.,4.8,0.,4.8,1.,4.8,1.,4.8
1980-11-15 03:18:46.080 ,3,0,0.,4.8,1.,4.8,0.,4.8,0.,4.8
1980-11-15 03:18:50.880 ,3,0,0.,4.8,0.,4.8,0.,4.8,0.,4.8
1980-11-15 03:18:55.680 ,3,0,0.,4.8,0.,4.8,0.,4.8,0.,4.8
1980-11-15 03:19:00.480 ,4,0,0.,4.8,2.,4.8,0.,4.8,0.,4.8
1980-11-15 03:19:05.280 ,4,0,0.,4.8,0.,4.8,0.,4.8,0.,4.8
1980-11-15 03:19:10.080 ,4,0,0.,4.8,1.,4.8,0.,4.8,0.,4.8
1980-11-15 03:19:14.880 ,4,0,0.,4.8,0.,4.8,0.,4.8,0.,4.8
1980-11-15 03:19:19.680 ,4,0,0.,4.8,0.,4.8,0.,4.8,0.,4.8
1980-11-15 03:19:24.480 ,4,0,0.,4.8,1.,4.8,1.,4.8,0.,4.8
1980-11-15 03:19:29.280 ,4,0,0.,4.8,1.,4.8,0.,4.8,1.,4.8
1980-11-15 03:19:34.080 ,4,0,0.,4.8,0.,4.8,0.,4.8,0.,4.8
1980-11-15 03:19:38.880 ,4,0,0.,4.8,0.,4.8,0.,4.8,0.,4.8
1980-11-15 03:19:43.680 ,4,0,0.,4.8,1.,4.8,0.,4.8,0.,4.8
1980-11-15 03:19:48.480 ,5,0,0.,4.8,0.,4.8,0.,4.8,0.,4.8
1980-11-15 03:19:53.280 ,5,0,0.,4.8,0.,4.8,1.,4.8,0.,4.8
1980-11-15 03:19:58.080 ,5,0,0.,4.8,0.,4.8,0.,4.8,1.,4.8
1980-11-15 03:20:02.880 ,5,0,0.,4.8,2.,4.8,0.,4.8,0.,4.8
1980-11-15 03:20:07.680 ,5,0,0.,4.8,0.,4.8,0.,4.8,0.,4.8
1980-11-15 03:20:12.480 ,5,0,0.,4.8,0.,4.8,0.,4.8,1.,4.8
1980-11-15 03:20:17.280 ,5,0,0.,4.8,1.,4.8,0.,4.8,0.,4.8
1980-11-15 03:20:22.080 ,5,0,0.,4.8,2.,4.8,0.,4.8,0.,4.8
1980-11-15 03:20:26.880 ,5,0,0.,4.8,0.,4.8,0.,4.8,0.,4.8
1980-11-15 03:20:31.680 ,5,0,0.,4.8,0.,4.8,1.,4.8,0.,4.8
1980-11-15 03:20:36.480 ,6,0,0.,4.8,0.,4.8,0.,4.8,1.,4.8
1980-11-15 03:20:41.280 ,6,0,0.,4.8,1.,4.8,1.,4.8,0.,4.8
1980-11-15 03:20:46.080 ,6,0,0.,4.8,1.,4.8,0.,4.8,0.,4.8
1980-11-15 03:20:50.880 ,6,0,0.,4.8,0.,4.8,0.,4.8,0.,4.8
1980-11-15 03:20:55.680 ,6,0,0.,4.8,0.,4.8,0.,4.8,0.,4.8
1980-11-15 03:21:00.480 ,6,0,0.,4.8,0.,4.8,0.,4.8,0.,4.8
1980-11-15 03:21:05.280 ,6,0,0.,4.8,0.,4.8,0.,4.8,0.,4.8
1980-11-15 03:21:10.080 ,6,0,0.,4.8,1.,4.8,0.,4.8,0.,4.8
1980-11-15 03:21:14.880 ,6,0,0.,4.8,0.,4.8,0.,4.8,0.,4.8
1980-11-15 03:21:19.680 ,6,0,0.,4.8,0.,4.8,0.,4.8,0.,4.8
1980-11-15 03:21:24.480 ,7,0,0.,4.8,0.,4.8,0.,4.8,0.,4.8
1980-11-15 03:21:29.280 ,7,0,0.,4.8,1.,4.8,0.,4.8,0.,4.8
1980-11-15 03:21:34.080 ,7,0,0.,4.8,0.,4.8,2.,4.8,2.,4.8
1980-11-15 03:21:38.880 ,7,0,0.,4.8,0.,4.8,1.,4.8,3.,4.8
1980-11-15 03:21:43.680 ,7,0,0.,4.8,0.,4.8,0.,4.8,0.,4.8
1980-11-15 03:21:48.480 ,7,0,0.,4.8,1.,4.8,0.,4.8,0.,4.8
1980-11-15 03:21:53.280 ,7,0,0.,4.8,0.,4.8,0.,4.8,0.,4.8
1980-11-15 03:21:58.080 ,7,0,0.,4.8,0.,4.8,0.,4.8,0.,4.8
1980-11-15 03:22:02.880 ,7,0,0.,4.8,0.,4.8,0.,4.8,0.,4.8
1980-11-15 03:22:07.680 ,7,0,0.,4.8,0.,4.8,1.,4.8,1.,4.8
1980-11-15 03:22:12.480 ,7,0,0.,4.8,0.,4.8,1.,4.8,0.,4.8
1980-11-15 03:22:17.280 ,7,0,0.,4.8,0.,4.8,1.,4.8,0.,4.8
1980-11-15 03:22:22.080 ,7,0,0.,4.8,0.,4.8,0.,4.8,0.,4.8
1980-11-15 03:22:26.880 ,7,0,0.,4.8,2.,4.8,0.,4.8,0.,4.8
1980-11-15 03:22:31.680 ,7,0,0.,4.8,0.,4.8,0.,4.8,0.,4.8
1980-11-15 03:22:36.480 ,7,0,0.,4.8,0.,4.8,0.,4.8,1.,4.8
1980-11-15 03:22:41.280 ,7,0,0.,4.8,0.,4.8,0.,4.8,0.,4.8
1980-11-15 03:22:46.080 ,7,0,0.,4.8,1.,4.8,0.,4.8,0.,4.8
1980-11-15 03:22:50.880 ,7,0,0.,4.8,0.,4.8,1.,4.8,0.,4.8
1980-11-15 03:22:55.680 ,7,0,0.,4.8,2.,4.8,1.,4.8,0.,4.8
1980-11-15 03:23:00.480 ,6,0,0.,4.8,1.,4.8,0.,4.8,1.,4.8
1980-11-15 03:23:05.280 ,6,0,0.,4.8,0.,4.8,0.,4.8,0.,4.8
1980-11-15 03:23:10.080 ,6,0,0.,4.8,0.,4.8,0.,4.8,1.,4.8
1980-11-15 03:23:14.880 ,6,0,0.,4.8,1.,4.8,0.,4.8,2.,4.8
1980-11-15 03:23:19.680 ,6,0,0.,4.8,2.,4.8,1.,4.8,0.,4.8
1980-11-15 03:23:24.480 ,6,0,0.,4.8,0.,4.8,0.,4.8,0.,4.8
1980-11-15 03:23:29.280 ,6,0,0.,4.8,1.,4.8,0.,4.8,0.,4.8
1980-11-15 03:23:34.080 ,6,0,0.,4.8,0.,4.8,0.,4.8,0.,4.8
1980-11-15 03:23:38.880 ,6,0,0.,4.8,1.,4.8,0.,4.8,0.,4.8
1980-11-15 03:23:43.680 ,6,0,0.,4.8,1.,4.8,0.,4.8,0.,4.8
1980-11-15 03:23:48.480 ,5,0,0.,4.8,0.,4.8,0.,4.8,0.,4.8
1980-11-15 03:23:53.280 ,5,0,0.,4.8,0.,4.8,0.,4.8,0.,4.8
1980-11-15 03:23:58.080 ,5,0,0.,4.8,2.,4.8,0.,4.8,1.,4.8
1980-11-15 03:24:02.880 ,5,0,0.,4.8,0.,4.8,0.,4.8,0.,4.8
1980-11-15 03:24:07.680 ,5,0,0.,4.8,0.,4.8,0.,4.8,0.,4.8
1980-11-15 03:24:12.480 ,5,0,0.,4.8,0.,4.8,0.,4.8,0.,4.8
1980-11-15 03:24:17.280 ,5,0,0.,4.8,0.,4.8,0.,4.8,0.,4.8
1980-11-15 03:24:22.080 ,5,0,0.,4.8,1.,4.8,0.,4.8,0.,4.8
1980-11-15 03:24:26.880 ,5,0,0.,4.8,1.,4.8,0.,4.8,0.,4.8
1980-11-15 03:24:31.680 ,5,0,0.,4.8,0.,4.8,0.,4.8,0.,4.8
1980-11-15 03:24:36.480 ,4,0,0.,4.8,1.,4.8,0.,4.8,0.,4.8
1980-11-15 03:24:41.280 ,4,0,0.,4.8,0.,4.8,0.,4.8,0.,4.8
1980-11-15 03:24:46.080 ,4,0,0.,4.8,0.,4.8,0.,4.8,1.,4.8
1980-11-15 03:24:50.880 ,4,0,0.,4.8,0.,4.8,0.,4.8,0.,4.8
1980-11-15 03:24:55.680 ,4,0,0.,4.8,1.,4.8,0.,4.8,0.,4.8
1980-11-15 03:25:00.480 ,4,0,0.,4.8,0.,4.8,1.,4.8,0.,4.8
1980-11-15 03:25:05.280 ,4,0,0.,4.8,0.,4.8,0.,4.8,0.,4.8
1980-11-15 03:25:10.080 ,4,0,0.,4.8,0.,4.8,0.,4.8,0.,4.8
1980-11-15 03:25:14.880 ,4,0,0.,4.8,0.,4.8,0.,4.8,0.,4.8
1980-11-15 03:25:19.680 ,4,0,0.,4.8,0.,4.8,0.,4.8,0.,4.8
1980-11-15 03:25:24.480 ,3,0,0.,4.8,0.,4.8,0.,4.8,0.,4.8
1980-11-15 03:25:29.280 ,3,0,0.,4.8,0.,4.8,0.,4.8,1.,4.8
1980-11-15 03:25:34.080 ,3,0,0.,4.8,1.,4.8,0.,4.8,0.,4.8
1980-11-15 03:25:38.880 ,3,0,0.,4.8,0.,4.8,0.,4.8,0.,4.8
1980-11-15 03:25:43.680 ,3,0,0.,4.8,0.,4.8,1.,4.8,0.,4.8
1980-11-15 03:25:48.480 ,3,0,0.,4.8,0.,4.8,1.,4.8,0.,4.8
1980-11-15 03:25:53.280 ,3,0,0.,4.8,0.,4.8,0.,4.8,0.,4.8
1980-11-15 03:25:58.080 ,3,0,0.,4.8,0.,4.8,0.,4.8,0.,4.8
1980-11-15 03:26:02.880 ,3,0,0.,4.8,1.,4.8,0.,4.8,0.,4.8
1980-11-15 03:26:07.680 ,3,0,0.,4.8,0.,4.8,0.,4.8,1.,4.8
1980-11-15 03:26:12.480 ,2,0,0.,4.8,0.,4.8,1.,4.8,1.,4.8
1980-11-15 03:26:17.280 ,2,0,0.,4.8,2.,4.8,0.,4.8,0.,4.8
1980-11-15 03:26:22.080 ,2,0,0.,4.8,1.,4.8,1.,4.8,0.,4.8
1980-11-15 03:26:26.880 ,2,0,0.,4.8,0.,4.8,0.,4.8,0.,4.8
1980-11-15 03:26:31.680 ,2,0,0.,4.8,2.,4.8,1.,4.8,1.,4.8
1980-11-15 03:26:36.480 ,2,0,0.,4.8,0.,4.8,0.,4.8,0.,4.8
1980-11-15 03:26:41.280 ,2,0,0.,4.8,0.,4.8,1.,4.8,0.,4.8
1980-11-15 03:26:46.080 ,2,0,0.,4.8,0.,4.8,1.,4.8,0.,4.8
1980-11-15 03:26:50.880 ,2,0,0.,4.8,0.,4.8,1.,4.8,0.,4.8
1980-11-15 03:26:55.680 ,2,0,0.,4.8,0.,4.8,0.,4.8,0.,4.8
1980-11-15 03:27:00.480 ,1,0,0.,4.8,1.,4.8,0.,4.8,0.,4.8
1980-11-15 03:27:05.280 ,1,0,0.,4.8,0.,4.8,0.,4.8,0.,4.8
1980-11-15 03:27:10.080 ,1,0,0.,4.8,2.,4.8,1.,4.8,0.,4.8
1980-11-15 03:27:14.880 ,1,0,0.,4.8,1.,4.8,0.,4.8,0.,4.8
1980-11-15 03:27:19.680 ,1,0,0.,4.8,0.,4.8,1.,4.8,0.,4.8
1980-11-15 03:27:24.480 ,1,0,0.,4.8,0.,4.8,0.,4.8,0.,4.8
1980-11-15 03:27:29.280 ,1,0,0.,4.8,0.,4.8,0.,4.8,0.,4.8
1980-11-15 03:27:34.080 ,1,0,0.,4.8,3.,4.8,0.,4.8,0.,4.8
1980-11-15 03:27:38.880 ,1,0,0.,4.8,3.,4.8,0.,4.8,0.,4.8
1980-11-15 03:27:43.680 ,1,0,0.,4.8,0.,4.8,0.,4.8,0.,4.8
1980-11-15 03:27:48.480 ,0,0,0.,4.8,0.,4.8,0.,4.8,1.,4.8
1980-11-15 03:27:53.280 ,0,0,0.,4.8,0.,4.8,0.,4.8,0.,4.8
1980-11-15 03:27:58.080 ,0,0,0.,4.8,1.,4.8,0.,4.8,0.,4.8
1980-11-15 03:28:02.880 ,0,0,0.,4.8,0.,4.8,0.,4.8,0.,4.8
1980-11-15 03:28:07.680 ,0,0,0.,4.8,0.,4.8,1.,4.8,0.,4.8
1980-11-15 03:28:12.480 ,0,0,0.,4.8,1.,4.8,0.,4.8,0.,4.8
1980-11-15 03:28:17.280 ,0,0,0.,4.8,0.,4.8,0.,4.8,0.,4.8
1980-11-15 03:28:22.080 ,0,0,0.,4.8,0.,4.8,0.,4.8,0.,4.8
1980-11-15 03:28:26.880 ,0,0,0.,4.8,0.,4.8,2.,4.8,0.,4.8
1980-11-15 03:28:31.680 ,0,0,0.,4.8,2.,4.8,0.,4.8,0.,4.8
1980-11-15 03:28:36.480 ,0,0,0.,4.8,1.,4.8,0.,4.8,0.,4.8
1980-11-15 03:28:41.280 ,0,0,0.,4.8,0.,4.8,1.,4.8,0.,4.8
1980-11-15 03:28:46.080 ,0,0,0.,4.8,0.,4.8,0.,4.8,0.,4.8
1980-11-15 03:28:50.880 ,0,0,0.,4.8,1.,4.8,0.,4.8,0.,4.8
1980-11-15 03:28:55.680 ,0,0,0.,4.8,2.,4.8,0.,4.8,0.,4.8
1980-11-15 03:29:00.480 ,0,0,0.,4.8,0.,4.8,0.,4.8,1.,4.8
1980-11-15 03:29:05.280 ,0,0,0.,4.8,1.,4.8,0.,4.8,1.,4.8
1980-11-15 03:29:10.080 ,0,0,0.,4.8,0.,4.8,1.,4.8,1.,4.8
1980-11-15 03:29:14.880 ,0,0,0.,4.8,0.,4.8,0.,4.8,0.,4.8
1980-11-15 03:29:19.680 ,0,0,0.,4.8,0.,4.8,0.,4.8,0.,4.8
1980-11-15 03:29:24.480 ,1,0,0.,4.8,0.,4.8,0.,4.8,1.,4.8
1980-11-15 03:29:29.280 ,1,0,0.,4.8,0.,4.8,0.,4.8,0.,4.8
1980-11-15 03:29:34.080 ,1,0,0.,4.8,0.,4.8,0.,4.8,0.,4.8
1980-11-15 03:29:38.880 ,1,0,0.,4.8,1.,4.8,0.,4.8,0.,4.8
1980-11-15 03:29:43.680 ,1,0,0.,4.8,0.,4.8,0.,4.8,0.,4.8
1980-11-15 03:29:48.480 ,1,0,0.,4.8,0.,4.8,1.,4.8,0.,4.8
1980-11-15 03:29:53.280 ,1,0,0.,4.8,0.,4.8,0.,4.8,0.,4.8
1980-11-15 03:29:58.080 ,1,0,0.,4.8,1.,4.8,0.,4.8,0.,4.8
1980-11-15 03:30:02.880 ,1,0,0.,4.8,0.,4.8,0.,4.8,0.,4.8
1980-11-15 03:30:07.680 ,1,0,0.,4.8,0.,4.8,1.,4.8,0.,4.8
1980-11-15 03:30:12.480 ,2,0,0.,4.8,1.,4.8,0.,4.8,1.,4.8
1980-11-15 03:30:17.280 ,2,0,0.,4.8,0.,4.8,0.,4.8,0.,4.8
1980-11-15 03:30:22.080 ,2,0,0.,4.8,1.,4.8,0.,4.8,1.,4.8
1980-11-15 03:30:26.880 ,2,0,0.,4.8,0.,4.8,1.,4.8,0.,4.8
1980-11-15 03:30:31.680 ,2,0,0.,4.8,0.,4.8,1.,4.8,0.,4.8
1980-11-15 03:30:36.480 ,2,0,0.,4.8,1.,4.8,1.,4.8,0.,4.8
1980-11-15 03:30:41.280 ,2,0,0.,4.8,0.,4.8,0.,4.8,0.,4.8
1980-11-15 03:30:46.080 ,2,0,0.,4.8,0.,4.8,0.,4.8,1.,4.8
1980-11-15 03:30:50.880 ,2,0,0.,4.8,0.,4.8,1.,4.8,0.,4.8
1980-11-15 03:30:55.680 ,2,0,0.,4.8,1.,4.8,0.,4.8,0.,4.8
1980-11-15 03:31:00.480 ,3,0,0.,4.8,0.,4.8,0.,4.8,0.,4.8
1980-11-15 03:31:05.280 ,3,0,0.,4.8,0.,4.8,0.,4.8,0.,4.8
1980-11-15 03:31:10.080 ,3,0,0.,4.8,1.,4.8,0.,4.8,0.,4.8
1980-11-15 03:31:14.880 ,3,0,0.,4.8,0.,4.8,0.,4.8,1.,4.8
1980-11-15 03:31:19.680 ,3,0,0.,4.8,0.,4.8,0.,4.8,0.,4.8
1980-11-15 03:31:24.480 ,3,0,0.,4.8,0.,4.8,0.,4.8,0.,4.8
1980-11-15 03:31:29.280 ,3,0,0.,4.8,1.,4.8,0.,4.8,0.,4.8
1980-11-15 03:31:34.080 ,3,0,0.,4.8,0.,4.8,1.,4.8,1.,4.8
1980-11-15 03:31:38.880 ,3,0,0.,4.8,0.,4.8,3.,4.8,0.,4.8
1980-11-15 03:31:43.680 ,3,0,0.,4.8,1.,4.8,1.,4.8,0.,4.8
1980-11-15 03:31:48.480 ,4,0,0.,4.8,1.,4.8,0.,4.8,0.,4.8
1980-11-15 03:31:53.280 ,4,0,0.,4.8,1.,4.8,0.,4.8,0.,4.8
1980-11-15 03:31:58.080 ,4,0,0.,4.8,0.,4.8,0.,4.8,0.,4.8
1980-11-15 03:32:02.880 ,4,0,0.,4.8,0.,4.8,0.,4.8,0.,4.8
1980-11-15 03:32:07.680 ,4,0,0.,4.8,0.,4.8,0.,4.8,1.,4.8
1980-11-15 03:32:12.480 ,4,0,0.,4.8,1.,4.8,0.,4.8,0.,4.8
1980-11-15 03:32:17.280 ,4,0,0.,4.8,1.,4.8,0.,4.8,0.,4.8
1980-11-15 03:32:22.080 ,4,0,0.,4.8,0.,4.8,0.,4.8,0.,4.8
1980-11-15 03:32:26.880 ,4,0,0.,4.8,0.,4.8,0.,4.8,0.,4.8
1980-11-15 03:32:31.680 ,4,0,0.,4.8,0.,4.8,0.,4.8,0.,4.8
1980-11-15 03:32:36.480 ,5,0,0.,4.8,1.,4.8,0.,4.8,0.,4.8
1980-11-15 03:32:41.280 ,5,0,0.,4.8,1.,4.8,0.,4.8,0.,4.8
1980-11-15 03:32:46.080 ,5,0,0.,4.8,0.,4.8,0.,4.8,1.,4.8
1980-11-15 03:32:50.880 ,5,0,0.,4.8,1.,4.8,1.,4.8,0.,4.8
1980-11-15 03:32:55.680 ,5,0,0.,4.8,0.,4.8,0.,4.8,0.,4.8
1980-11-15 03:33:00.480 ,5,0,0.,4.8,0.,4.8,0.,4.8,0.,4.8
1980-11-15 03:33:05.280 ,5,0,0.,4.8,1.,4.8,1.,4.8,0.,4.8